CW3518 Weather Reports


Display with metric or nautical units.
time (UTC)temp
F
wind
direction
speed
MPH
gust
MPH
rain 1hr
in
rain 24hr
in
rain mn
in
humidity
%
barometer
mb
20260831061526 84 148 7.0 9.0 0.00 0.00 0.00 53 1014.8
20260831061026 84 152 8.0 8.0 0.00 0.00 0.00 52 1014.8
20260831060526 84 150 7.0 8.0 0.00 0.00 0.00 52 1014.9
20260831060026 84 144 6.0 8.0 0.00 0.00 0.00 51 1014.8
20260831055526 84 147 8.0 9.0 0.00 0.00 0.00 51 1014.8
20260831055026 84 154 7.0 9.0 0.00 0.00 0.00 51 1014.7
20260831054456 85 148 7.0 9.0 0.00 0.00 0.00 50 1014.7
20260831054026 85 158 7.0 8.0 0.00 0.00 0.00 50 1014.7
20260831053026 84 206 5.0 9.0 0.00 0.00 0.00 51 1014.8
20260831052455 84 221 6.0 12.0 0.00 0.00 0.00 51 1014.8
20260831052025 85 167 6.0 12.0 0.00 0.00 0.00 49 1014.6
20260831051525 85 135 10.0 11.0 0.00 0.00 0.00 49 1014.6
20260831051025 85 124 9.0 11.0 0.00 0.00 0.00 48 1014.5
20260831050525 85 127 9.0 10.0 0.00 0.00 0.00 48 1014.5
20260831045025 86 136 7.0 8.0 0.00 0.00 0.00 47 1014.4
20260831044525 86 137 7.0 8.0 0.00 0.00 0.00 46 1014.5
20260831044025 87 144 7.0 7.0 0.00 0.00 0.00 45 1014.5
20260831043525 87 136 6.0 7.0 0.00 0.00 0.00 45 1014.6
20260831043025 87 138 6.0 7.0 0.00 0.00 0.00 45 1014.6
20260831042525 87 139 6.0 7.0 0.00 0.00 0.00 44 1014.6
20260831042025 87 139 5.0 8.0 0.00 0.00 0.00 44 1014.6
20260831041525 88 155 7.0 8.0 0.00 0.00 0.00 44 1014.6
20260831041025 88 153 6.0 7.0 0.00 0.00 0.00 43 1014.7
20260831040524 88 164 6.0 7.0 0.00 0.00 0.00 43 1014.6
20260831035025 88 154 6.0 7.0 0.00 0.00 0.00 43 1014.5
20260831034524 87 139 6.0 7.0 0.00 0.00 0.00 43 1014.4
20260831033524 88 138 7.0 7.0 0.00 0.00 0.00 42 1014.4
20260831032524 88 137 7.0 7.0 0.00 0.00 0.00 41 1014.5
20260831032024 88 143 7.0 8.0 0.00 0.00 0.00 41 1014.5
20260831031524 88 143 6.0 9.0 0.00 0.00 0.00 41 1014.4
20260831031024 88 133 7.0 9.0 0.00 0.00 0.00 40 1014.3
20260831030524 89 126 7.0 8.0 0.00 0.00 0.00 40 1014.2
20260831030024 88 123 7.0 8.0 0.00 0.00 0.00 40 1014.2
20260831025524 88 124 7.0 7.0 0.00 0.00 0.00 40 1014.1
20260831025024 89 133 6.0 7.0 0.00 0.00 0.00 39 1014.1
20260831024524 89 129 7.0 7.0 0.00 0.00 0.00 39 1014.1
20260831024024 89 121 6.0 7.0 0.00 0.00 0.00 38 1014.1
20260831023026 89 129 4.0 7.0 0.00 0.00 0.00 37 1013.9
20260831022524 90 141 5.0 7.0 0.00 0.00 0.00 37 1013.9
20260831022024 90 156 7.0 7.0 0.00 0.00 0.00 37 1013.6
20260831021024 90 156 7.0 7.0 0.00 0.00 0.00 36 1013.5
20260831020024 90 144 6.0 7.0 0.00 0.00 0.00 36 1013.4
20260831015524 90 131 6.0 7.0 0.00 0.00 0.00 36 1013.3
20260831014523 90 132 5.0 7.0 0.00 0.00 0.00 35 1013.2
20260831014024 90 132 6.0 7.0 0.00 0.00 0.00 35 1013.2
20260831013524 91 129 7.0 7.0 0.00 0.00 0.00 34 1013.2
20260831013024 91 142 6.0 7.0 0.00 0.00 0.00 33 1013.1
20260831012523 92 144 7.0 7.0 0.00 0.00 0.00 33 1013.1
20260831011524 92 135 5.0 8.0 0.00 0.00 0.00 33 1013.1
20260831011023 92 139 7.0 8.0 0.00 0.00 0.00 32 1013.0
20260831010523 93 144 6.0 7.0 0.00 0.00 0.00 32 1013.0
20260831010023 93 140 5.0 9.0 0.00 0.00 0.00 32 1013.0
20260831005523 94 144 6.0 9.0 0.00 0.00 0.00 32 1013.0
20260831005023 94 168 5.0 9.0 0.00 0.00 0.00 31 1013.0
20260831004523 95 164 7.0 10.0 0.00 0.00 0.00 31 1013.0
20260831004022 95 165 6.0 10.0 0.00 0.00 0.00 30 1013.0
20260831003523 95 168 7.0 12.0 0.00 0.00 0.00 30 1013.0
20260831003022 96 149 8.0 15.0 0.00 0.00 0.00 29 1012.9
20260831002523 96 151 8.0 15.0 0.00 0.00 0.00 29 1012.9
20260831002022 96 163 11.0 14.0 0.00 0.00 0.00 29 1012.9
20260831001522 96 169 12.0 14.0 0.00 0.00 0.00 29 1012.9
20260831001022 97 162 7.0 18.0 0.00 0.00 0.00 29 1013.0
20260831000522 97 190 9.0 18.0 0.00 0.00 0.00 29 1012.9
20260831000022 97 168 9.0 14.0 0.00 0.00 0.00 29 1012.9
20260830235522 97 156 11.0 14.0 0.00 0.00 0.00 29 1012.9
20260830235022 98 130 11.0 14.0 0.00 0.00 0.00 28 1012.9
20260830234521 98 181 7.0 13.0 0.00 0.00 0.00 28 1013.0
20260830234021 98 172 11.0 15.0 0.00 0.00 0.00 28 1012.9
20260830233522 98 134 10.0 17.0 0.00 0.00 0.00 28 1012.9
20260830233021 98 158 10.0 17.0 0.00 0.00 0.00 28 1012.9
20260830232521 98 202 8.0 16.0 0.00 0.00 0.00 28 1012.9
20260830232021 98 145 10.0 15.0 0.00 0.00 0.00 28 1012.8
20260830231021 99 171 15.0 15.0 0.00 0.00 0.00 26 1012.9
20260830230521 99 201 4.0 13.0 0.00 0.00 0.00 27 1013.0
20260830225521 99 190 9.0 16.0 0.00 0.00 0.00 26 1013.1
20260830225021 99 175 12.0 17.0 0.00 0.00 0.00 26 1013.1
20260830224521 99 199 9.0 17.0 0.00 0.00 0.00 26 1013.1
20260830224022 99 140 13.0 14.0 0.00 0.00 0.00 26 1013.0
20260830223523 99 194 8.0 14.0 0.00 0.00 0.00 27 1013.1
20260830222523 98 198 11.0 12.0 0.00 0.00 0.00 28 1013.0
20260830221520 99 149 11.0 17.0 0.00 0.00 0.00 28 1013.1
20260830221021 98 171 11.0 14.0 0.00 0.00 0.00 28 1013.1
20260830220520 99 145 9.0 16.0 0.00 0.00 0.00 27 1013.1
20260830220020 98 117 13.0 16.0 0.00 0.00 0.00 27 1013.1
20260830215520 99 187 6.0 17.0 0.00 0.00 0.00 27 1013.2
20260830215021 98 182 13.0 17.0 0.00 0.00 0.00 28 1013.2
20260830214520 97 183 5.0 15.0 0.00 0.00 0.00 29 1013.2
20260830213020 99 160 17.0 21.0 0.00 0.00 0.00 27 1013.1
20260830212520 99 151 13.0 21.0 0.00 0.00 0.00 28 1013.2
20260830212020 100 184 8.0 16.0 0.00 0.00 0.00 28 1013.3
20260830211519 99 204 12.0 19.0 0.00 0.00 0.00 28 1013.4
20260830210519 98 162 11.0 13.0 0.00 0.00 0.00 28 1013.5
20260830205520 99 158 5.0 15.0 0.00 0.00 0.00 28 1013.6
20260830205019 100 173 13.0 16.0 0.00 0.00 0.00 28 1013.6
20260830204519 98 111 10.0 16.0 0.00 0.00 0.00 29 1013.6
20260830204019 99 180 13.0 14.0 0.00 0.00 0.00 29 1013.7
20260830203520 98 189 5.0 18.0 0.00 0.00 0.00 29 1013.9
20260830203019 99 179 10.0 18.0 0.00 0.00 0.00 29 1013.9
20260830202019 99 225 9.0 14.0 0.00 0.00 0.00 29 1014.1
20260830201019 98 189 14.0 20.0 0.00 0.00 0.00 29 1014.2
20260830200519 99 189 8.0 16.0 0.00 0.00 0.00 30 1014.3
20260830200019 98 139 12.0 17.0 0.00 0.00 0.00 29 1014.3
20260830195520 98 144 13.0 17.0 0.00 0.00 0.00 30 1014.3
20260830194518 98 132 8.0 20.0 0.00 0.00 0.00 30 1014.6
20260830194018 99 146 15.0 20.0 0.00 0.00 0.00 30 1014.6
20260830193519 98 225 17.0 20.0 0.00 0.00 0.00 31 1014.6
20260830193019 98 202 8.0 18.0 0.00 0.00 0.00 31 1014.7
20260830192519 98 197 15.0 19.0 0.00 0.00 0.00 32 1014.7
20260830192018 98 199 13.0 19.0 0.00 0.00 0.00 32 1014.8
20260830191019 97 166 13.0 24.0 0.00 0.00 0.00 31 1014.8
20260830190018 97 208 15.0 20.0 0.00 0.00 0.00 34 1014.9
20260830185018 97 196 13.0 22.0 0.00 0.00 0.00 33 1015.0
20260830184518 96 132 9.0 22.0 0.00 0.00 0.00 34 1015.1
20260830184018 96 177 8.0 21.0 0.00 0.00 0.00 34 1015.0
20260830183018 96 196 13.0 22.0 0.00 0.00 0.00 33 1015.3
20260830182518 97 201 18.0 21.0 0.00 0.00 0.00 33 1015.4
20260830182048 97 195 13.0 22.0 0.00 0.00 0.00 33 1015.4
20260830181018 97 163 15.0 22.0 0.00 0.00 0.00 34 1015.6
20260830180517 97 186 13.0 22.0 0.00 0.00 0.00 36 1015.6
20260830175518 95 222 14.0 22.0 0.00 0.00 0.00 36 1015.8
20260830175018 95 200 19.0 22.0 0.00 0.00 0.00 36 1015.8
20260830174517 96 182 16.0 20.0 0.00 0.00 0.00 36 1015.9
20260830174017 96 211 19.0 20.0 0.00 0.00 0.00 36 1015.9
20260830173018 96 169 11.0 21.0 0.00 0.00 0.00 37 1016.1
20260830172518 96 176 18.0 24.0 0.00 0.00 0.00 37 1016.1
20260830172017 95 203 12.0 24.0 0.00 0.00 0.00 38 1016.3
20260830171517 95 183 16.0 18.0 0.00 0.00 0.00 38 1016.3
20260830171018 95 182 10.0 18.0 0.00 0.00 0.00 39 1016.4
20260830170517 95 220 13.0 18.0 0.00 0.00 0.00 38 1016.5
20260830170017 96 189 15.0 18.0 0.00 0.00 0.00 38 1016.5
20260830165517 96 217 18.0 18.0 0.00 0.00 0.00 39 1016.6
20260830165017 95 218 14.0 18.0 0.00 0.00 0.00 39 1016.6
20260830164547 95 181 18.0 19.0 0.00 0.00 0.00 39 1016.5
20260830164017 94 233 13.0 19.0 0.00 0.00 0.00 41 1016.7
20260830163517 94 204 19.0 19.0 0.00 0.00 0.00 40 1016.7
20260830163017 95 198 12.0 18.0 0.00 0.00 0.00 40 1016.7
20260830162517 93 199 9.0 18.0 0.00 0.00 0.00 43 1016.8
20260830162018 94 225 7.0 17.0 0.00 0.00 0.00 42 1016.8
20260830161517 94 200 11.0 13.0 0.00 0.00 0.00 43 1016.8
20260830161017 93 218 11.0 18.0 0.00 0.00 0.00 44 1016.8
20260830160516 93 216 15.0 18.0 0.00 0.00 0.00 45 1016.8
20260830160016 92 227 17.0 19.0 0.00 0.00 0.00 45 1016.9
20260830155017 92 209 15.0 15.0 0.00 0.00 0.00 47 1016.9
20260830154517 92 180 7.0 15.0 0.00 0.00 0.00 48 1016.9
20260830154016 92 207 12.0 15.0 0.00 0.00 0.00 49 1016.9
20260830152016 90 225 14.0 17.0 0.00 0.00 0.00 51 1016.9
20260830151516 90 203 14.0 16.0 0.00 0.00 0.00 51 1016.9
20260830151016 90 203 14.0 14.0 0.00 0.00 0.00 51 1016.9
20260830150516 90 225 13.0 14.0 0.00 0.00 0.00 52 1016.9
20260830150016 89 198 11.0 14.0 0.00 0.00 0.00 53 1017.0
20260830145516 88 211 6.0 15.0 0.00 0.00 0.00 54 1017.0
20260830145016 88 206 13.0 15.0 0.00 0.00 0.00 54 1017.0
20260830144516 88 209 15.0 15.0 0.00 0.00 0.00 54 1017.0
20260830144015 87 226 8.0 15.0 0.00 0.00 0.00 56 1017.0
20260830143017 86 212 16.0 16.0 0.00 0.00 0.00 57 1016.9
20260830141515 86 203 8.0 16.0 0.00 0.00 0.00 59 1016.9
20260830141015 86 210 9.0 13.0 0.00 0.00 0.00 59 1016.8
20260830140515 85 226 12.0 12.0 0.00 0.00 0.00 60 1016.9
20260830140015 85 201 8.0 11.0 0.00 0.00 0.00 61 1017.0
20260830135515 84 229 7.0 12.0 0.00 0.00 0.00 61 1017.0
20260830135015 84 217 9.0 12.0 0.00 0.00 0.00 62 1017.0
20260830134515 84 214 10.0 11.0 0.00 0.00 0.00 63 1017.0
20260830134015 83 205 8.0 8.0 0.00 0.00 0.00 64 1016.9
20260830133515 82 197 6.0 8.0 0.00 0.00 0.00 65 1016.9
20260830133014 82 192 7.0 8.0 0.00 0.00 0.00 66 1016.9
20260830131014 80 179 6.0 7.0 0.00 0.00 0.00 69 1016.8
20260830130514 79 208 4.0 7.0 0.00 0.00 0.00 69 1016.7
20260830130014 79 179 4.0 7.0 0.00 0.00 0.00 69 1016.7
20260830125514 78 156 5.0 7.0 0.00 0.00 0.00 70 1016.6
20260830125014 78 151 5.0 7.0 0.00 0.00 0.00 70 1016.5
20260830124514 78 175 5.0 7.0 0.00 0.00 0.00 71 1016.4
20260830124014 78 177 7.0 7.0 0.00 0.00 0.00 71 1016.4
20260830123514 77 166 6.0 7.0 0.00 0.00 0.00 72 1016.3
20260830123014 77 141 5.0 8.0 0.00 0.00 0.00 72 1016.3
20260830122013 77 151 7.0 8.0 0.00 0.00 0.00 72 1016.3
20260830121514 77 148 7.0 8.0 0.00 0.00 0.00 72 1016.2
20260830120513 77 138 5.0 7.0 0.00 0.00 0.00 71 1016.0
20260830120013 77 139 6.0 7.0 0.00 0.00 0.00 71 1015.9
20260830115013 77 148 4.0 8.0 0.00 0.00 0.00 70 1015.8
20260830114513 78 132 6.0 8.0 0.00 0.00 0.00 69 1015.7
20260830113513 78 138 6.0 7.0 0.00 0.00 0.00 68 1015.6
20260830112513 78 136 7.0 8.0 0.00 0.00 0.00 67 1015.5
20260830112014 78 121 7.0 8.0 0.00 0.00 0.00 66 1015.4
20260830111013 79 129 5.0 6.0 0.00 0.00 0.00 65 1015.3
20260830110013 80 147 5.0 7.0 0.00 0.00 0.00 64 1015.3
20260830105513 79 147 5.0 7.0 0.00 0.00 0.00 65 1015.3
20260830104513 79 122 5.0 7.0 0.00 0.00 0.00 65 1015.3
20260830104013 79 113 5.0 7.0 0.00 0.00 0.00 64 1015.3
20260830103513 79 109 7.0 7.0 0.00 0.00 0.00 64 1015.3
20260830103013 79 102 5.0 5.0 0.00 0.00 0.00 63 1015.3
20260830102513 79 98 5.0 6.0 0.00 0.00 0.00 63 1015.3
20260830102013 80 108 4.0 6.0 0.00 0.00 0.00 63 1015.3
20260830101013 80 116 6.0 6.0 0.00 0.00 0.00 62 1015.2
20260830100512 80 113 5.0 6.0 0.00 0.00 0.00 62 1015.2
20260830100012 80 127 5.0 6.0 0.00 0.00 0.00 62 1015.2
20260830095512 80 117 5.0 6.0 0.00 0.00 0.00 61 1015.2
20260830095012 80 127 5.0 6.0 0.00 0.00 0.00 61 1015.2
20260830094513 80 122 5.0 7.0 0.00 0.00 0.00 61 1015.2
20260830093513 80 123 6.0 7.0 0.00 0.00 0.00 60 1015.3
20260830093012 80 135 5.0 7.0 0.00 0.00 0.00 60 1015.2
20260830092512 80 143 6.0 7.0 0.00 0.00 0.00 60 1015.2
20260830092012 80 148 6.0 7.0 0.00 0.00 0.00 60 1015.1
20260830091512 80 142 6.0 6.0 0.00 0.00 0.00 60 1015.1
20260830091012 80 111 6.0 7.0 0.00 0.00 0.00 60 1015.1
20260830090512 80 112 6.0 8.0 0.00 0.00 0.00 61 1015.1
20260830085512 80 110 6.0 7.0 0.00 0.00 0.00 60 1015.0
20260830085011 80 104 6.0 7.0 0.00 0.00 0.00 59 1015.0
20260830084511 80 106 7.0 7.0 0.00 0.00 0.00 58 1015.0
20260830083511 81 120 5.0 6.0 0.00 0.00 0.00 57 1014.9
20260830083011 81 119 5.0 6.0 0.00 0.00 0.00 58 1015.0
20260830082511 80 114 6.0 6.0 0.00 0.00 0.00 58 1015.0
20260830082011 80 104 5.0 6.0 0.00 0.00 0.00 58 1015.1
20260830081511 80 92 5.0 7.0 0.00 0.00 0.00 58 1015.1
20260830080511 79 64 6.0 7.0 0.00 0.00 0.00 59 1015.1
20260830080011 81 59 5.0 5.0 0.00 0.00 0.00 57 1015.1
20260830075511 82 76 4.0 4.0 0.00 0.00 0.00 55 1015.2
20260830074511 82 182 4.0 5.0 0.00 0.00 0.00 54 1015.1
20260830074011 82 194 3.0 5.0 0.00 0.00 0.00 54 1015.1
20260830073511 82 214 4.0 5.0 0.00 0.00 0.00 54 1015.0
20260830073011 82 202 4.0 5.0 0.00 0.00 0.00 54 1015.0
20260830072511 82 198 5.0 6.0 0.00 0.00 0.00 53 1015.1
20260830072011 83 207 6.0 6.0 0.00 0.00 0.00 53 1015.1
20260830071511 83 208 5.0 6.0 0.00 0.00 0.00 53 1015.1
20260830071011 82 201 5.0 5.0 0.00 0.00 0.00 53 1015.2
20260830070511 83 194 5.0 6.0 0.00 0.00 0.00 53 1015.2
20260830070011 83 183 5.0 6.0 0.00 0.00 0.00 53 1015.3
20260830065512 83 172 5.0 6.0 0.00 0.00 0.00 53 1015.3
20260830065011 83 174 5.0 7.0 0.00 0.00 0.00 52 1015.2
20260830064010 83 179 6.0 6.0 0.00 0.00 0.00 52 1015.2
20260830063510 83 169 5.0 7.0 0.00 0.00 0.00 51 1015.2
20260830063010 84 158 6.0 7.0 0.00 0.00 0.00 51 1015.2
20260830062510 84 159 6.0 7.0 0.00 0.00 0.00 50 1015.2
20260830062010 84 162 5.0 6.0 0.00 0.00 0.00 50 1015.2